| time (UTC) | temp F | wind direction | speed knots | gust knots | rain 1hr in | rain 24hr in | rain mn in | humidity % | barometer mb |
| 20260506233059 | 57 | 243 | 0.9 | 3.5 | 0.00 | 0.00 | 0.00 | 82 | 1022.4 |
| 20260506232545 | 57 | 315 | 0.9 | 3.5 | 0.00 | 0.00 | 0.00 | 82 | 1022.4 |
| 20260506232045 | 57 | 276 | 0.9 | 3.5 | 0.00 | 0.00 | 0.00 | 83 | 1022.3 |
| 20260506231553 | 57 | 325 | 1.7 | 2.6 | 0.00 | 0.00 | 0.00 | 83 | 1022.4 |
| 20260506231047 | 57 | 316 | 0.9 | 2.6 | 0.00 | 0.00 | 0.00 | 81 | 1022.5 |
| 20260506230545 | 57 | 0 | 0.9 | 3.5 | 0.00 | 0.00 | 0.00 | 82 | 1022.6 |
| 20260506225548 | 57 | 222 | 0.0 | 2.6 | 0.00 | 0.00 | 0.00 | 82 | 1022.7 |
| 20260506225044 | 57 | 277 | 0.9 | 2.6 | 0.00 | 0.00 | 0.00 | 82 | 1022.7 |
| 20260506224558 | 57 | 254 | 0.9 | 1.7 | 0.00 | 0.00 | 0.00 | 81 | 1022.7 |
| 20260506224043 | 57 | 274 | 0.0 | 1.7 | 0.00 | 0.00 | 0.00 | 82 | 1022.7 |
| 20260506223600 | 57 | 137 | 0.9 | 4.3 | 0.00 | 0.00 | 0.00 | 82 | 1022.9 |
| 20260506223053 | 57 | 231 | 0.9 | 3.5 | 0.00 | 0.00 | 0.00 | 81 | 1022.8 |
| 20260506222543 | 57 | 242 | 0.9 | 3.5 | 0.00 | 0.00 | 0.00 | 81 | 1022.9 |
| 20260506222043 | 57 | 294 | 0.0 | 1.7 | 0.00 | 0.00 | 0.00 | 81 | 1022.8 |
| 20260506221551 | 57 | 295 | 0.0 | 1.7 | 0.00 | 0.00 | 0.00 | 80 | 1022.8 |
| 20260506221043 | 57 | 309 | 0.0 | 0.9 | 0.00 | 0.00 | 0.00 | 80 | 1022.8 |
| 20260506220543 | 57 | 0 | 0.0 | 1.7 | 0.00 | 0.00 | 0.00 | 80 | 1022.8 |
| 20260506220053 | 57 | 304 | 0.0 | 2.6 | 0.00 | 0.00 | 0.00 | 80 | 1022.8 |
| 20260506215546 | 57 | 229 | 0.9 | 2.6 | 0.00 | 0.00 | 0.00 | 80 | 1022.7 |
| 20260506215042 | 57 | 0 | 0.9 | 2.6 | 0.00 | 0.00 | 0.00 | 80 | 1022.8 |
| 20260506214602 | 58 | 290 | 0.0 | 1.7 | 0.00 | 0.00 | 0.00 | 80 | 1022.8 |
| 20260506214043 | 58 | 286 | 0.0 | 1.7 | 0.00 | 0.00 | 0.00 | 79 | 1022.8 |
| 20260506213543 | 58 | 232 | 0.0 | 1.7 | 0.00 | 0.00 | 0.00 | 79 | 1022.7 |
| 20260506213051 | 58 | 229 | 0.0 | 1.7 | 0.00 | 0.00 | 0.00 | 79 | 1022.7 |
| 20260506212542 | 58 | 0 | 0.0 | 1.7 | 0.00 | 0.00 | 0.00 | 78 | 1022.7 |
| 20260506212043 | 58 | 0 | 0.0 | 1.7 | 0.00 | 0.00 | 0.00 | 79 | 1022.7 |
| 20260506211556 | 58 | 168 | 0.0 | 2.6 | 0.00 | 0.00 | 0.00 | 79 | 1022.7 |
| 20260506211043 | 58 | 159 | 0.0 | 2.6 | 0.00 | 0.00 | 0.00 | 78 | 1022.7 |
| 20260506210543 | 58 | 165 | 0.0 | 2.6 | 0.00 | 0.00 | 0.00 | 79 | 1022.6 |
| 20260506210057 | 58 | 219 | 0.0 | 1.7 | 0.00 | 0.00 | 0.00 | 79 | 1022.5 |
| 20260506205543 | 58 | 242 | 0.0 | 3.5 | 0.00 | 0.00 | 0.00 | 79 | 1022.5 |
| 20260506205043 | 58 | 169 | 0.9 | 3.5 | 0.00 | 0.00 | 0.00 | 78 | 1022.5 |
| 20260506204556 | 58 | 183 | 0.0 | 1.7 | 0.00 | 0.00 | 0.00 | 79 | 1022.5 |
| 20260506204042 | 58 | 150 | 0.0 | 1.7 | 0.00 | 0.00 | 0.00 | 79 | 1022.4 |
| 20260506203546 | 58 | 218 | 0.0 | 1.7 | 0.00 | 0.00 | 0.00 | 79 | 1022.4 |
| 20260506203052 | 58 | 179 | 0.0 | 1.7 | 0.00 | 0.00 | 0.00 | 80 | 1022.4 |
| 20260506202544 | 58 | 177 | 0.0 | 0.9 | 0.00 | 0.00 | 0.00 | 80 | 1022.5 |
| 20260506202044 | 58 | 0 | 0.0 | 0.9 | 0.00 | 0.00 | 0.00 | 80 | 1022.5 |
| 20260506201551 | 57 | 167 | 0.0 | 2.6 | 0.00 | 0.00 | 0.00 | 80 | 1022.5 |
| 20260506201042 | 57 | 0 | 0.9 | 2.6 | 0.00 | 0.00 | 0.00 | 80 | 1022.6 |
| 20260506200545 | 57 | 236 | 0.0 | 3.5 | 0.00 | 0.00 | 0.00 | 79 | 1022.6 |
| 20260506200101 | 57 | 240 | 0.0 | 3.5 | 0.00 | 0.00 | 0.00 | 80 | 1022.5 |
| 20260506195543 | 57 | 170 | 0.9 | 1.7 | 0.00 | 0.00 | 0.00 | 79 | 1022.5 |
| 20260506195046 | 58 | 0 | 0.0 | 1.7 | 0.00 | 0.00 | 0.00 | 80 | 1022.6 |
| 20260506194556 | 57 | 189 | 0.0 | 2.6 | 0.00 | 0.00 | 0.00 | 80 | 1022.6 |
| 20260506194043 | 57 | 183 | 0.0 | 2.6 | 0.00 | 0.00 | 0.00 | 80 | 1022.4 |
| 20260506193544 | 57 | 173 | 0.0 | 2.6 | 0.00 | 0.00 | 0.00 | 81 | 1022.4 |
| 20260506193056 | 57 | 0 | 0.0 | 3.5 | 0.00 | 0.00 | 0.00 | 80 | 1022.5 |
| 20260506192542 | 57 | 258 | 0.9 | 2.6 | 0.00 | 0.00 | 0.00 | 80 | 1022.4 |
| 20260506192046 | 57 | 242 | 0.0 | 2.6 | 0.00 | 0.00 | 0.00 | 81 | 1022.4 |
| 20260506191605 | 57 | 0 | 0.0 | 2.6 | 0.00 | 0.00 | 0.00 | 81 | 1022.3 |
| 20260506191042 | 57 | 227 | 0.9 | 2.6 | 0.00 | 0.00 | 0.00 | 81 | 1022.3 |
| 20260506190542 | 57 | 225 | 0.0 | 2.6 | 0.00 | 0.00 | 0.00 | 81 | 1022.3 |
| 20260506190049 | 57 | 200 | 0.9 | 2.6 | 0.00 | 0.00 | 0.00 | 81 | 1022.3 |
| 20260506185542 | 57 | 196 | 0.9 | 3.5 | 0.00 | 0.00 | 0.00 | 81 | 1022.2 |
| 20260506185042 | 57 | 217 | 0.9 | 3.5 | 0.00 | 0.00 | 0.00 | 82 | 1022.4 |
| 20260506184552 | 57 | 144 | 0.0 | 2.6 | 0.00 | 0.00 | 0.00 | 81 | 1022.4 |
| 20260506184043 | 57 | 175 | 0.0 | 2.6 | 0.00 | 0.00 | 0.00 | 82 | 1022.4 |
| 20260506183544 | 57 | 203 | 0.0 | 2.6 | 0.00 | 0.00 | 0.00 | 82 | 1022.3 |
| 20260506183056 | 57 | 165 | 0.0 | 1.7 | 0.00 | 0.00 | 0.00 | 82 | 1022.1 |
| 20260506182542 | 56 | 0 | 0.9 | 1.7 | 0.00 | 0.00 | 0.00 | 82 | 1022.1 |
| 20260506182042 | 56 | 168 | 0.0 | 1.7 | 0.00 | 0.00 | 0.00 | 83 | 1022.1 |
| 20260506181559 | 56 | 0 | 0.0 | 2.6 | 0.00 | 0.00 | 0.00 | 83 | 1021.9 |
| 20260506181043 | 56 | 182 | 0.0 | 2.6 | 0.00 | 0.00 | 0.00 | 83 | 1022.0 |
| 20260506180543 | 56 | 0 | 0.0 | 1.7 | 0.00 | 0.00 | 0.00 | 84 | 1022.2 |
| 20260506180111 | 56 | 151 | 0.0 | 1.7 | 0.00 | 0.00 | 0.00 | 84 | 1022.2 |
| 20260506175543 | 56 | 177 | 0.0 | 1.7 | 0.00 | 0.00 | 0.00 | 83 | 1022.2 |
| 20260506175042 | 56 | 0 | 0.0 | 1.7 | 0.00 | 0.00 | 0.00 | 85 | 1022.1 |
| 20260506174553 | 56 | 0 | 0.0 | 1.7 | 0.00 | 0.00 | 0.00 | 85 | 1022.0 |
| 20260506174042 | 56 | 159 | 0.0 | 1.7 | 0.00 | 0.00 | 0.00 | 85 | 1022.0 |
| 20260506173542 | 56 | 0 | 0.0 | 0.9 | 0.00 | 0.00 | 0.00 | 86 | 1021.9 |
| 20260506173124 | 55 | 214 | 0.0 | 0.9 | 0.00 | 0.00 | 0.00 | 85 | 1021.8 |
| 20260506172542 | 55 | 0 | 0.0 | 2.6 | 0.00 | 0.00 | 0.00 | 86 | 1021.8 |
| 20260506172043 | 55 | 249 | 0.0 | 2.6 | 0.00 | 0.00 | 0.00 | 85 | 1021.7 |
| 20260506171554 | 55 | 243 | 0.0 | 2.6 | 0.00 | 0.00 | 0.00 | 85 | 1021.9 |
| 20260506171041 | 55 | 252 | 0.0 | 0.9 | 0.00 | 0.00 | 0.00 | 86 | 1021.6 |
| 20260506170546 | 55 | 251 | 0.0 | 0.9 | 0.00 | 0.00 | 0.00 | 86 | 1021.6 |
| 20260506170059 | 55 | 222 | 0.0 | 0.9 | 0.00 | 0.00 | 0.00 | 87 | 1021.6 |
| 20260506165542 | 55 | 215 | 0.0 | 0.9 | 0.00 | 0.00 | 0.00 | 87 | 1021.7 |
| 20260506165043 | 55 | 0 | 0.0 | 0.9 | 0.00 | 0.00 | 0.00 | 87 | 1021.5 |
| 20260506164551 | 55 | 206 | 0.0 | 0.9 | 0.00 | 0.00 | 0.00 | 88 | 1021.5 |
| 20260506164042 | 55 | 0 | 0.0 | 0.9 | 0.00 | 0.00 | 0.00 | 88 | 1021.4 |
| 20260506163543 | 55 | 198 | 0.0 | 0.0 | 0.00 | 0.00 | 0.00 | 89 | 1021.5 |
| 20260506163100 | 54 | 0 | 0.0 | 0.0 | 0.00 | 0.00 | 0.00 | 89 | 1021.3 |
| 20260506162542 | 54 | 0 | 0.0 | 0.9 | 0.00 | 0.00 | 0.00 | 89 | 1021.3 |
| 20260506162043 | 54 | 0 | 0.0 | 0.9 | 0.00 | 0.00 | 0.00 | 90 | 1021.4 |
| 20260506161555 | 54 | 0 | 0.0 | 0.9 | 0.00 | 0.00 | 0.00 | 89 | 1021.5 |
| 20260506161045 | 54 | 244 | 0.0 | 1.7 | 0.00 | 0.00 | 0.00 | 89 | 1021.5 |
| 20260506160543 | 54 | 248 | 0.0 | 1.7 | 0.00 | 0.00 | 0.00 | 89 | 1021.3 |
| 20260506160051 | 54 | 196 | 0.0 | 0.9 | 0.00 | 0.00 | 0.00 | 90 | 1021.4 |
| 20260506155545 | 54 | 0 | 0.0 | 0.9 | 0.00 | 0.00 | 0.00 | 90 | 1021.2 |
| 20260506155044 | 54 | 0 | 0.0 | 2.6 | 0.00 | 0.00 | 0.00 | 90 | 1021.3 |
| 20260506154552 | 53 | 223 | 0.0 | 2.6 | 0.00 | 0.00 | 0.00 | 91 | 1021.3 |
| 20260506154043 | 53 | 260 | 0.0 | 2.6 | 0.00 | 0.00 | 0.00 | 91 | 1021.3 |
| 20260506153542 | 53 | 193 | 0.0 | 0.9 | 0.00 | 0.00 | 0.00 | 91 | 1021.3 |
| 20260506153049 | 53 | 0 | 0.0 | 0.9 | 0.00 | 0.00 | 0.00 | 91 | 1020.9 |
| 20260506152543 | 53 | 258 | 0.0 | 0.9 | 0.00 | 0.00 | 0.00 | 91 | 1021.2 |
| 20260506152043 | 53 | 230 | 0.0 | 0.9 | 0.00 | 0.00 | 0.00 | 92 | 1021.1 |
| 20260506151551 | 53 | 185 | 0.0 | 1.7 | 0.00 | 0.00 | 0.00 | 92 | 1020.9 |
| 20260506151043 | 53 | 0 | 0.0 | 2.6 | 0.00 | 0.00 | 0.00 | 92 | 1020.8 |
| 20260506150543 | 53 | 196 | 0.0 | 2.6 | 0.00 | 0.00 | 0.00 | 93 | 1020.8 |
| 20260506150046 | 53 | 239 | 0.0 | 0.9 | 0.00 | 0.00 | 0.00 | 93 | 1020.8 |
| 20260506145543 | 53 | 0 | 0.0 | 0.0 | 0.00 | 0.00 | 0.00 | 93 | 1020.6 |
| 20260506145042 | 53 | 0 | 0.0 | 0.0 | 0.00 | 0.00 | 0.00 | 93 | 1020.5 |
| 20260506144602 | 53 | 0 | 0.0 | 0.9 | 0.00 | 0.00 | 0.00 | 93 | 1020.5 |
| 20260506144043 | 53 | 0 | 0.0 | 0.9 | 0.00 | 0.00 | 0.00 | 93 | 1020.5 |
| 20260506143543 | 53 | 0 | 0.0 | 0.9 | 0.00 | 0.00 | 0.00 | 94 | 1020.5 |
| 20260506143050 | 52 | 293 | 0.0 | 0.9 | 0.00 | 0.00 | 0.00 | 94 | 1020.5 |
| 20260506142543 | 52 | 293 | 0.0 | 0.9 | 0.00 | 0.00 | 0.00 | 94 | 1020.6 |
| 20260506142047 | 52 | 293 | 0.0 | 0.9 | 0.00 | 0.00 | 0.00 | 94 | 1020.8 |
| 20260506141551 | 52 | 0 | 0.0 | 0.9 | 0.00 | 0.00 | 0.00 | 94 | 1020.6 |
| 20260506141043 | 52 | 0 | 0.0 | 0.0 | 0.00 | 0.00 | 0.00 | 93 | 1020.6 |
| 20260506140543 | 52 | 0 | 0.0 | 0.0 | 0.00 | 0.00 | 0.00 | 93 | 1021.0 |
| 20260506140120 | 52 | 0 | 0.0 | 0.0 | 0.00 | 0.00 | 0.00 | 93 | 1021.1 |
| 20260506135543 | 52 | 0 | 0.0 | 0.0 | 0.00 | 0.01 | 0.00 | 93 | 1021.0 |
| 20260506135043 | 52 | 0 | 0.0 | 0.0 | 0.00 | 0.01 | 0.00 | 93 | 1021.1 |
| 20260506134554 | 52 | 0 | 0.0 | 0.0 | 0.00 | 0.01 | 0.00 | 93 | 1020.9 |
| 20260506134043 | 52 | 0 | 0.0 | 0.0 | 0.00 | 0.01 | 0.00 | 93 | 1020.9 |
| 20260506133543 | 52 | 0 | 0.0 | 0.0 | 0.00 | 0.01 | 0.00 | 93 | 1020.8 |
| 20260506133053 | 52 | 0 | 0.0 | 0.0 | 0.00 | 0.01 | 0.00 | 93 | 1020.8 |
| 20260506132543 | 52 | 0 | 0.0 | 0.0 | 0.00 | 0.01 | 0.00 | 93 | 1020.6 |
| 20260506132043 | 52 | 0 | 0.0 | 0.0 | 0.00 | 0.01 | 0.00 | 93 | 1020.5 |
| 20260506131557 | 52 | 0 | 0.0 | 0.0 | 0.00 | 0.01 | 0.00 | 93 | 1020.5 |
| 20260506131043 | 52 | 0 | 0.0 | 0.0 | 0.00 | 0.01 | 0.00 | 93 | 1020.5 |
| 20260506130543 | 52 | 0 | 0.0 | 0.0 | 0.00 | 0.01 | 0.00 | 93 | 1020.5 |
| 20260506130050 | 52 | 0 | 0.0 | 0.0 | 0.00 | 0.01 | 0.00 | 93 | 1020.4 |
| 20260506125543 | 52 | 0 | 0.0 | 0.0 | 0.00 | 0.01 | 0.00 | 93 | 1020.5 |
| 20260506125046 | 52 | 157 | 0.0 | 0.0 | 0.00 | 0.01 | 0.00 | 93 | 1020.4 |
| 20260506124551 | 52 | 157 | 0.0 | 0.0 | 0.00 | 0.01 | 0.00 | 93 | 1020.3 |
| 20260506124045 | 52 | 0 | 0.0 | 0.0 | 0.00 | 0.01 | 0.00 | 93 | 1020.1 |
| 20260506123543 | 52 | 0 | 0.0 | 0.0 | 0.00 | 0.01 | 0.00 | 93 | 1020.1 |
| 20260506123051 | 52 | 0 | 0.0 | 0.0 | 0.00 | 0.01 | 0.00 | 93 | 1020.2 |
| 20260506122543 | 52 | 0 | 0.0 | 0.0 | 0.00 | 0.01 | 0.00 | 93 | 1020.1 |
| 20260506122045 | 52 | 0 | 0.0 | 0.0 | 0.00 | 0.01 | 0.00 | 93 | 1020.0 |
| 20260506121554 | 52 | 0 | 0.0 | 0.0 | 0.00 | 0.01 | 0.00 | 92 | 1020.1 |
| 20260506121043 | 52 | 0 | 0.0 | 0.0 | 0.00 | 0.01 | 0.00 | 92 | 1019.9 |
| 20260506120544 | 52 | 0 | 0.0 | 0.0 | 0.00 | 0.01 | 0.00 | 92 | 1019.9 |
| 20260506120053 | 52 | 0 | 0.0 | 0.0 | 0.00 | 0.01 | 0.00 | 92 | 1019.9 |
| 20260506115546 | 52 | 0 | 0.0 | 0.0 | 0.00 | 0.01 | 0.00 | 92 | 1019.9 |
| 20260506115042 | 52 | 0 | 0.0 | 0.0 | 0.00 | 0.01 | 0.00 | 92 | 1019.9 |
| 20260506114550 | 52 | 0 | 0.0 | 0.0 | 0.00 | 0.01 | 0.00 | 92 | 1019.9 |
| 20260506114043 | 53 | 0 | 0.0 | 0.0 | 0.00 | 0.01 | 0.00 | 92 | 1019.9 |
| 20260506113542 | 53 | 0 | 0.0 | 0.0 | 0.00 | 0.01 | 0.00 | 92 | 1019.8 |
| 20260506113052 | 53 | 0 | 0.0 | 0.0 | 0.00 | 0.01 | 0.00 | 92 | 1019.6 |
| 20260506112546 | 53 | 157 | 0.0 | 0.0 | 0.00 | 0.01 | 0.00 | 92 | 1019.6 |
| 20260506112044 | 53 | 0 | 0.0 | 0.0 | 0.00 | 0.01 | 0.00 | 92 | 1019.8 |
| 20260506111558 | 53 | 0 | 0.0 | 0.0 | 0.00 | 0.01 | 0.00 | 92 | 1019.9 |
| 20260506111043 | 53 | 0 | 0.0 | 0.0 | 0.00 | 0.01 | 0.00 | 92 | 1019.9 |
| 20260506110543 | 53 | 0 | 0.0 | 0.0 | 0.00 | 0.01 | 0.00 | 92 | 1019.8 |
| 20260506110054 | 53 | 0 | 0.0 | 0.0 | 0.00 | 0.01 | 0.00 | 92 | 1019.8 |
| 20260506105548 | 53 | 0 | 0.0 | 0.0 | 0.00 | 0.01 | 0.00 | 92 | 1019.9 |
| 20260506105046 | 53 | 0 | 0.0 | 0.0 | 0.00 | 0.01 | 0.00 | 91 | 1019.7 |
| 20260506104600 | 53 | 0 | 0.0 | 0.0 | 0.00 | 0.01 | 0.00 | 91 | 1019.7 |
| 20260506104042 | 53 | 0 | 0.0 | 0.0 | 0.00 | 0.01 | 0.00 | 91 | 1019.7 |
| 20260506103543 | 53 | 0 | 0.0 | 0.0 | 0.00 | 0.01 | 0.00 | 91 | 1019.6 |
| 20260506103051 | 53 | 0 | 0.0 | 0.0 | 0.00 | 0.01 | 0.00 | 91 | 1019.6 |
| 20260506102544 | 53 | 0 | 0.0 | 0.0 | 0.00 | 0.01 | 0.00 | 91 | 1019.6 |
| 20260506102043 | 53 | 0 | 0.0 | 0.0 | 0.00 | 0.01 | 0.00 | 91 | 1019.4 |
| 20260506101555 | 53 | 0 | 0.0 | 0.0 | 0.00 | 0.01 | 0.00 | 91 | 1019.4 |
| 20260506101047 | 53 | 0 | 0.0 | 0.0 | 0.00 | 0.01 | 0.00 | 91 | 1019.5 |
| 20260506100543 | 53 | 0 | 0.0 | 0.0 | 0.00 | 0.01 | 0.00 | 91 | 1019.5 |
| 20260506095545 | 53 | 0 | 0.0 | 0.0 | 0.00 | 0.01 | 0.00 | 91 | 1019.5 |
| 20260506095047 | 53 | 0 | 0.0 | 0.0 | 0.00 | 0.01 | 0.00 | 90 | 1019.4 |
| 20260506094605 | 53 | 0 | 0.0 | 0.0 | 0.00 | 0.01 | 0.00 | 90 | 1019.5 |
| 20260506094042 | 53 | 0 | 0.0 | 0.0 | 0.00 | 0.01 | 0.00 | 90 | 1019.4 |
| 20260506093545 | 53 | 0 | 0.0 | 0.0 | 0.00 | 0.01 | 0.00 | 90 | 1019.3 |
| 20260506093055 | 53 | 0 | 0.0 | 0.0 | 0.00 | 0.01 | 0.00 | 90 | 1019.3 |
| 20260506092543 | 53 | 0 | 0.0 | 0.0 | 0.00 | 0.01 | 0.00 | 90 | 1019.2 |
| 20260506092045 | 54 | 0 | 0.0 | 0.0 | 0.00 | 0.01 | 0.00 | 89 | 1019.2 |
| 20260506091553 | 54 | 0 | 0.0 | 0.0 | 0.00 | 0.01 | 0.00 | 90 | 1018.9 |
| 20260506091043 | 54 | 0 | 0.0 | 0.0 | 0.00 | 0.01 | 0.00 | 89 | 1018.9 |
| 20260506090543 | 54 | 0 | 0.0 | 0.0 | 0.00 | 0.01 | 0.00 | 89 | 1018.9 |
| 20260506090054 | 54 | 0 | 0.0 | 0.0 | 0.00 | 0.01 | 0.00 | 89 | 1018.9 |
| 20260506085542 | 54 | 0 | 0.0 | 0.0 | 0.00 | 0.01 | 0.00 | 89 | 1018.9 |
| 20260506085046 | 54 | 0 | 0.0 | 0.0 | 0.00 | 0.01 | 0.00 | 89 | 1019.0 |
| 20260506084555 | 54 | 0 | 0.0 | 0.0 | 0.00 | 0.01 | 0.00 | 89 | 1018.9 |
| 20260506084044 | 54 | 0 | 0.0 | 0.0 | 0.00 | 0.01 | 0.00 | 89 | 1018.9 |
| 20260506083546 | 54 | 0 | 0.0 | 0.0 | 0.00 | 0.01 | 0.00 | 89 | 1018.8 |
| 20260506083058 | 54 | 0 | 0.0 | 0.0 | 0.00 | 0.01 | 0.00 | 89 | 1018.8 |
| 20260506082543 | 54 | 0 | 0.0 | 0.0 | 0.00 | 0.01 | 0.00 | 89 | 1018.8 |
| 20260506082043 | 54 | 0 | 0.0 | 0.0 | 0.00 | 0.01 | 0.00 | 89 | 1018.8 |
| 20260506081554 | 54 | 0 | 0.0 | 0.0 | 0.00 | 0.01 | 0.00 | 89 | 1018.7 |
| 20260506081043 | 54 | 0 | 0.0 | 0.0 | 0.00 | 0.01 | 0.00 | 89 | 1018.8 |
| 20260506080546 | 54 | 0 | 0.0 | 0.0 | 0.00 | 0.01 | 0.00 | 89 | 1018.7 |
| 20260506080107 | 54 | 0 | 0.0 | 0.0 | 0.00 | 0.01 | 0.00 | 89 | 1018.6 |
| 20260506073102 | 54 | 0 | 0.0 | 0.0 | 0.00 | 0.01 | 0.00 | 90 | 1018.2 |
| 20260506072543 | 54 | 0 | 0.0 | 0.0 | 0.00 | 0.01 | 0.00 | 90 | 1018.2 |
| 20260506072041 | 54 | 0 | 0.0 | 0.0 | 0.00 | 0.01 | 0.00 | 90 | 1018.1 |
| 20260506071551 | 54 | 0 | 0.0 | 0.0 | 0.00 | 0.01 | 0.00 | 90 | 1018.1 |
| 20260506071047 | 54 | 0 | 0.0 | 0.0 | 0.00 | 0.01 | 0.00 | 90 | 1017.9 |
| 20260506070540 | 54 | 0 | 0.0 | 0.0 | 0.00 | 0.01 | 0.00 | 90 | 1018.0 |
| 20260506062044 | 54 | 0 | 0.0 | 0.0 | 0.00 | 0.01 | 0.01 | 89 | 1017.8 |
| 20260506061551 | 54 | 0 | 0.0 | 0.0 | 0.00 | 0.01 | 0.01 | 89 | 1017.8 |
| 20260506061044 | 54 | 0 | 0.0 | 0.0 | 0.00 | 0.01 | 0.01 | 88 | 1017.9 |
| 20260506060544 | 54 | 0 | 0.0 | 0.0 | 0.00 | 0.01 | 0.01 | 88 | 1017.8 |
| 20260506051041 | 55 | 0 | 0.0 | 0.0 | 0.00 | 0.01 | 0.01 | 87 | 1017.9 |
| 20260506050543 | 55 | 0 | 0.0 | 0.0 | 0.00 | 0.01 | 0.01 | 87 | 1017.9 |
| 20260506045044 | 55 | 0 | 0.0 | 0.0 | 0.00 | 0.01 | 0.01 | 87 | 1017.8 |
| 20260506044552 | 55 | 0 | 0.0 | 0.0 | 0.00 | 0.01 | 0.01 | 87 | 1017.8 |
| 20260506044043 | 55 | 0 | 0.0 | 0.0 | 0.00 | 0.01 | 0.01 | 87 | 1017.8 |
| 20260506043544 | 55 | 0 | 0.0 | 0.0 | 0.00 | 0.01 | 0.01 | 87 | 1017.7 |
| 20260506043053 | 55 | 0 | 0.0 | 0.0 | 0.00 | 0.01 | 0.01 | 87 | 1017.7 |
| 20260506042548 | 55 | 0 | 0.0 | 0.0 | 0.00 | 0.01 | 0.01 | 86 | 1017.6 |
| 20260506042046 | 55 | 0 | 0.0 | 0.0 | 0.00 | 0.01 | 0.01 | 86 | 1017.6 |
| 20260506041556 | 55 | 0 | 0.0 | 0.0 | 0.00 | 0.01 | 0.01 | 86 | 1017.5 |
| 20260506041044 | 55 | 0 | 0.0 | 0.9 | 0.00 | 0.01 | 0.01 | 85 | 1017.4 |
| 20260506040544 | 55 | 0 | 0.0 | 0.9 | 0.00 | 0.01 | 0.01 | 85 | 1017.4 |
| 20260506040053 | 55 | 0 | 0.0 | 0.9 | 0.00 | 0.01 | 0.01 | 85 | 1017.4 |
| 20260506035544 | 55 | 161 | 0.0 | 1.7 | 0.00 | 0.01 | 0.01 | 85 | 1017.4 |
| 20260506035046 | 55 | 161 | 0.0 | 2.6 | 0.00 | 0.01 | 0.01 | 84 | 1017.3 |
| 20260506034553 | 55 | 0 | 0.0 | 2.6 | 0.00 | 0.01 | 0.01 | 84 | 1017.3 |
| 20260506034043 | 55 | 213 | 0.0 | 1.7 | 0.00 | 0.01 | 0.01 | 84 | 1017.3 |
| 20260506033543 | 55 | 0 | 0.0 | 0.9 | 0.00 | 0.01 | 0.01 | 84 | 1017.3 |
| 20260506033056 | 55 | 0 | 0.0 | 0.9 | 0.00 | 0.01 | 0.01 | 84 | 1017.1 |
| 20260506032543 | 55 | 248 | 0.0 | 0.9 | 0.00 | 0.01 | 0.01 | 84 | 1017.0 |
| 20260506032045 | 55 | 0 | 0.0 | 0.9 | 0.00 | 0.01 | 0.01 | 84 | 1016.8 |
| 20260506031553 | 56 | 0 | 0.0 | 0.9 | 0.00 | 0.01 | 0.01 | 83 | 1016.8 |
| 20260506031043 | 56 | 234 | 0.0 | 0.9 | 0.00 | 0.01 | 0.01 | 83 | 1016.9 |
| 20260506030543 | 56 | 246 | 0.0 | 0.9 | 0.00 | 0.01 | 0.01 | 83 | 1016.8 |
| 20260506030057 | 56 | 0 | 0.0 | 2.6 | 0.00 | 0.01 | 0.01 | 83 | 1016.9 |
| 20260506025542 | 56 | 148 | 0.0 | 2.6 | 0.00 | 0.01 | 0.01 | 83 | 1016.8 |
| 20260506025046 | 56 | 0 | 0.0 | 0.9 | 0.00 | 0.01 | 0.01 | 83 | 1016.7 |
| 20260506024603 | 56 | 296 | 0.0 | 0.9 | 0.00 | 0.01 | 0.01 | 83 | 1016.9 |
| 20260506024044 | 56 | 310 | 0.0 | 1.7 | 0.00 | 0.01 | 0.01 | 82 | 1016.6 |
| 20260506023544 | 56 | 292 | 0.0 | 1.7 | 0.00 | 0.01 | 0.01 | 82 | 1016.7 |
| 20260506023054 | 56 | 162 | 0.9 | 1.7 | 0.00 | 0.01 | 0.01 | 81 | 1016.7 |
| 20260506022543 | 56 | 185 | 0.0 | 2.6 | 0.00 | 0.01 | 0.01 | 82 | 1016.6 |
| 20260506022044 | 57 | 0 | 0.0 | 2.6 | 0.00 | 0.01 | 0.01 | 81 | 1016.6 |
| 20260506021558 | 57 | 0 | 0.0 | 1.7 | 0.00 | 0.01 | 0.01 | 81 | 1016.5 |
| 20260506021044 | 57 | 0 | 0.0 | 3.5 | 0.00 | 0.01 | 0.01 | 81 | 1016.6 |
| 20260506020542 | 57 | 283 | 0.0 | 3.5 | 0.00 | 0.01 | 0.01 | 80 | 1016.6 |
| 20260506020051 | 57 | 219 | 0.9 | 3.5 | 0.00 | 0.01 | 0.01 | 80 | 1016.6 |
| 20260506015546 | 57 | 0 | 0.0 | 2.6 | 0.00 | 0.01 | 0.01 | 80 | 1016.5 |
| 20260506015044 | 57 | 198 | 0.0 | 2.6 | 0.00 | 0.01 | 0.01 | 80 | 1016.5 |
| 20260506014553 | 57 | 298 | 0.9 | 2.6 | 0.00 | 0.01 | 0.01 | 80 | 1016.4 |
| 20260506014045 | 57 | 300 | 0.9 | 2.6 | 0.00 | 0.01 | 0.01 | 80 | 1016.4 |
| 20260506013543 | 57 | 232 | 0.0 | 3.5 | 0.00 | 0.01 | 0.01 | 80 | 1016.3 |
| 20260506013052 | 57 | 267 | 0.0 | 3.5 | 0.00 | 0.01 | 0.01 | 80 | 1016.3 |
| 20260506012543 | 58 | 312 | 0.9 | 3.5 | 0.00 | 0.01 | 0.01 | 79 | 1016.3 |
| 20260506012043 | 58 | 28 | 0.9 | 4.3 | 0.00 | 0.01 | 0.01 | 79 | 1016.3 |
| 20260506011620 | 58 | 347 | 0.0 | 4.3 | 0.00 | 0.01 | 0.01 | 79 | 1016.4 |
| 20260506011043 | 58 | 236 | 0.9 | 3.5 | 0.00 | 0.01 | 0.01 | 78 | 1016.3 |
| 20260506010543 | 58 | 294 | 0.0 | 3.5 | 0.00 | 0.01 | 0.01 | 79 | 1016.3 |
| 20260506010059 | 59 | 280 | 0.9 | 3.5 | 0.00 | 0.01 | 0.01 | 78 | 1016.3 |
| 20260506005543 | 59 | 0 | 0.0 | 2.6 | 0.00 | 0.01 | 0.01 | 78 | 1016.3 |
| 20260506005047 | 59 | 140 | 0.0 | 3.5 | 0.00 | 0.01 | 0.01 | 78 | 1016.4 |
| 20260506004555 | 59 | 269 | 0.9 | 3.5 | 0.00 | 0.01 | 0.01 | 78 | 1016.5 |
| 20260506004043 | 59 | 283 | 0.0 | 3.5 | 0.00 | 0.01 | 0.01 | 78 | 1016.4 |
| 20260506003543 | 59 | 264 | 0.9 | 3.5 | 0.00 | 0.01 | 0.01 | 78 | 1016.4 |
| 20260506003051 | 59 | 240 | 0.9 | 3.5 | 0.00 | 0.01 | 0.01 | 78 | 1016.4 |
| 20260506002543 | 59 | 239 | 0.9 | 4.3 | 0.00 | 0.01 | 0.01 | 78 | 1016.5 |
| 20260506002043 | 59 | 248 | 0.9 | 4.3 | 0.00 | 0.01 | 0.01 | 78 | 1016.4 |
| 20260506001550 | 59 | 178 | 0.9 | 4.3 | 0.00 | 0.01 | 0.01 | 78 | 1016.3 |
| 20260506001043 | 59 | 184 | 0.9 | 4.3 | 0.00 | 0.01 | 0.01 | 78 | 1016.3 |
| 20260506000541 | 59 | 15 | 1.7 | 5.2 | 0.00 | 0.01 | 0.01 | 77 | 1016.4 |
| 20260506000058 | 60 | 168 | 1.7 | 5.2 | 0.00 | 0.01 | 0.01 | 76 | 1016.4 |
| 20260505235543 | 60 | 260 | 0.9 | 3.5 | 0.00 | 0.01 | 0.01 | 76 | 1016.4 |
| 20260505235043 | 60 | 288 | 1.7 | 5.2 | 0.00 | 0.01 | 0.01 | 76 | 1016.3 |
| 20260505234553 | 60 | 210 | 1.7 | 5.2 | 0.00 | 0.01 | 0.01 | 75 | 1016.4 |
| 20260505234046 | 61 | 261 | 0.9 | 4.3 | 0.00 | 0.01 | 0.01 | 75 | 1016.3 |
| 20260505233543 | 61 | 248 | 1.7 | 5.2 | 0.00 | 0.01 | 0.01 | 75 | 1016.5 |